Location: Arundel
(45.9667°N, 74.6189°W)
Time: 13:38:51
(UTC+00:00)

X-37B - Pass Details

Date: 08 December 2022
Orbit: 277 x 277 km, 45.0° (Epoch: 01 November)

Event Time Altitude Azimuth Distance (km) Brightness Sun altitude
Rises 23:31:08 0° 245° (WSW) 1,910 5.4 -23.0°
Reaches altitude 10° 23:33:05 10° 238° (WSW) 1,099 3.8 -23.4°
Enters shadow 23:33:32 14° 235° (SW) 924 3.3 -23.4°
